GFSNGP_sfc_rhum_000.txt.gz
RH
52 47 47 52 54 59 60 58 49 49 47 42 39 38 38 42 57 63 56 53 66 90 90 81 72 64 57 53 50 52 51 54 52 49 44 44 44 42 40 41 39 40 36 36
41 38 41 41 39 40 46 53 55 54 43 36 38 47 70 72 62 60 52 60 85 84 77 76 74 59 51 50 49 48 48 49 42 36 35 38 37 38 37 38 36 37 36 38
40 50 49 52 50 47 43 41 36 39 35 41 44 51 62 68 60 55 56 82 83 78 76 71 59 52 53 50 47 42 47 35 32 32 33 34 33 34 36 35 36 36 34 35
59 62 69 57 50 44 44 46 46 44 46 54 62 62 63 64 65 57 74 81 79 74 68 62 53 51 48 44 39 35 38 32 32 33 34 33 34 34 34 33 34 33 35 32
74 78 62 58 54 52 54 63 60 60 62 65 60 67 65 72 69 76 84 81 76 68 61 54 47 44 37 34 32 31 33 34 34 35 35 35 36 36 34 34 35 36 32 32
94 86 75 59 54 52 52 62 65 66 64 70 72 78 69 81 81 82 74 68 65 56 50 45 41 33 30 32 32 32 34 36 36 38 38 38 38 38 36 38 36 35 36 34
87 87 76 59 54 54 67 60 74 71 69 70 76 72 76 80 77 73 68 58 54 53 48 40 32 30 32 35 34 34 38 39 40 40 40 39 39 40 42 44 42 44 40 37
89 89 85 62 66 70 64 75 68 65 66 68 76 81 80 78 75 69 66 57 50 50 36 28 29 33 36 37 35 38 41 42 42 43 40 38 49 50 49 47 48 46 46 44
77 76 64 68 62 63 60 60 65 71 62 63 72 77 76 79 76 69 58 45 37 36 33 29 35 37 39 38 40 42 46 46 45 44 43 43 52 52 53 49 51 51 51 57
69 73 74 64 68 66 64 63 61 64 67 67 65 68 75 80 81 66 50 39 35 32 30 35 38 38 40 41 43 47 50 49 48 48 48 48 47 49 53 53 55 55 62 66
84 75 70 73 68 68 67 68 76 78 71 65 70 81 89 92 90 58 44 38 35 35 40 43 43 43 43 44 48 52 53 51 48 48 51 51 50 51 51 52 57 61 64 64
86 74 72 75 76 74 77 78 72 71 73 87 90 90 93 88 60 48 38 38 41 44 47 46 47 48 47 48 52 56 51 49 52 52 55 54 53 53 56 60 62 61 61 60
75 73 68 75 80 80 81 81 79 85 85 90 87 92 70 43 36 36 38 41 44 47 50 51 51 52 50 50 54 58 58 53 55 56 56 56 58 64 69 64 61 62 61 61
78 74 80 83 82 83 88 97 92 89 88 88 80 65 46 40 39 39 43 46 48 49 52 52 53 51 48 52 56 60 60 60 60 61 63 64 65 68 67 69 72 68 62 62
86 84 81 86 92 97 89 89 90 90 87 89 82 63 42 40 42 45 48 48 50 54 55 55 55 51 49 53 53 56 58 61 63 65 64 64 64 66 67 69 68 67 66 67
92 96 99 99 97 94 91 87 93 92 97 87 70 46 41 44 47 50 52 54 58 55 54 56 55 50 53 57 60 62 65 63 59 60 64 64 66 69 67 68 70 75 77 70
85 85 96 98 96 99 93 90 96 90 87 63 48 44 46 48 53 56 55 55 55 56 55 54 52 51 56 59 63 64 65 66 64 62 68 68 68 68 71 79 87 76 74 70
82 86 89 89 91 92 93 93 92 79 52 47 46 48 51 54 55 56 57 57 60 60 55 52 54 56 60 62 63 65 66 64 63 66 66 68 70 71 71 75 80 82 78 74
85 81 83 87 89 92 93 92 75 48 49 48 52 54 54 57 59 59 60 62 63 63 51 52 56 58 60 62 58 60 62 64 65 67 68 71 75 83 86 80 76 78 82 73
73 70 73 86 88 89 84 62 55 51 49 52 54 57 57 56 57 59 62 65 62 57 56 58 58 59 59 60 60 62 64 67 70 69 68 64 70 77 83 75 73 74 70 67
75 68 55 60 71 64 62 54 51 50 50 55 55 56 58 60 61 62 67 65 55 55 55 58 59 60 58 58 60 63 67 69 68 71 73 74 74 74 74 73 69 68 69 69
81 79 70 56 50 48 49 51 52 53 56 59 59 60 62 66 68 73 65 65 57 60 57 59 60 59 58 61 62 66 67 66 64 64 66 70 73 77 82 82 84 82 81 87
83 87 78 65 57 54 52 60 61 62 63 62 62 63 65 65 68 73 68 56 59 61 55 57 60 60 63 60 63 64 63 64 65 66 72 79 81 86 88 88 88 91 92 89
85 89 89 68 61 59 60 62 68 67 67 62 64 68 72 75 72 69 66 62 60 60 57 58 61 62 62 61 61 63 65 66 72 80 77 77 87 92 94 92 93 91 88 86
90 95 92 89 78 67 81 89 87 85 71 67 63 62 62 67 72 61 64 63 62 61 58 60 61 62 58 60 62 63 67 75 80 79 83 86 85 89 90 90 92 92 93 93
92 93 90 80 73 74 76 74 70 66 69 72 70 67 68 68 70 64 64 62 57 58 56 55 56 58 61 62 64 66 66 69 70 73 76 81 85 89 90 90 91 92 90 92
97 85 95 84 75 70 71 67 69 75 69 72 72 70 72 69 65 59 59 57 57 56 58 58 60 63 63 65 65 65 68 72 74 74 79 88 89 89 87 88 90 91 92 94

GFSNGP_sfc_rhum_003.txt.gz
RH
56 52 59 62 64 57 53 52 49 50 52 46 46 41 40 40 54 63 64 59 78 92 89 78 67 58 53 50 48 45 47 42 43 42 40 40 40 38 37 37 35 36 36 34
47 46 42 45 47 62 62 60 57 57 50 42 43 50 59 67 66 68 61 60 84 87 78 73 68 56 51 50 47 41 44 39 38 38 38 39 37 37 37 37 36 35 35 37
46 56 54 49 47 44 42 42 38 36 34 45 55 61 69 72 64 65 58 76 90 80 76 70 56 53 53 48 36 32 39 36 38 38 39 40 38 38 39 38 38 37 36 37
50 60 63 48 53 45 45 54 42 53 54 56 63 64 61 66 66 64 65 85 81 76 71 58 54 49 39 32 31 34 36 37 39 41 40 40 40 40 41 39 39 40 39 38
68 66 60 64 54 53 56 68 61 61 62 64 62 66 69 70 72 74 86 82 78 71 64 53 45 33 28 31 34 35 37 40 40 42 42 42 43 43 42 42 44 42 40 41
92 83 70 56 54 51 48 80 71 67 73 78 75 82 75 84 87 84 78 70 68 61 53 42 31 29 31 33 35 37 39 41 43 45 45 45 46 45 43 46 45 43 44 44
81 80 70 57 56 55 67 57 74 67 69 74 72 72 74 85 84 79 75 68 61 54 45 38 28 31 33 32 36 39 42 44 46 48 49 47 47 47 49 51 49 51 48 47
87 86 76 65 64 68 68 77 66 65 65 67 72 79 88 86 83 78 71 65 56 49 36 27 29 30 32 37 39 43 46 49 51 52 47 42 57 57 56 54 55 54 54 54
73 74 69 76 66 68 63 64 66 74 70 63 70 79 82 86 84 80 66 52 45 41 33 28 31 34 40 41 44 47 51 54 54 53 52 50 59 57 58 55 56 58 58 62
75 80 79 69 71 68 68 67 70 73 74 72 74 74 80 85 86 74 58 50 40 31 28 31 39 41 44 46 48 53 57 58 55 58 53 53 54 55 57 56 59 60 65 68
83 84 80 75 77 74 72 77 77 78 77 77 78 81 86 90 91 74 49 39 33 33 38 42 45 46 48 48 52 53 56 56 56 56 59 58 56 55 53 54 60 62 65 66
80 73 72 76 75 77 77 79 80 83 80 85 87 86 92 93 78 52 47 37 38 42 44 46 50 51 50 50 54 58 55 52 56 57 62 60 59 56 56 60 62 61 62 61
73 77 69 72 80 82 81 88 94 92 92 86 93 93 89 54 44 40 35 39 42 45 48 52 53 54 53 53 56 57 61 55 58 60 61 60 62 66 70 63 61 62 62 61
78 75 81 81 85 92 97 96 91 89 88 93 91 74 60 46 40 38 40 43 47 48 52 56 56 55 51 54 56 61 63 62 61 63 66 66 66 65 64 68 70 67 61 62
85 86 86 89 92 98 95 92 92 86 86 87 87 76 48 44 41 41 46 48 50 55 54 55 55 53 53 56 54 58 59 62 64 68 68 63 61 63 65 68 67 66 65 66
96 99 98 99 98 98 98 96 92 87 88 91 94 76 52 43 43 48 51 53 54 54 55 56 57 52 55 58 62 64 66 63 62 62 63 61 63 66 67 67 68 74 75 69
90 86 94 98 98 95 93 94 89 89 96 95 87 64 45 47 51 52 51 54 55 57 57 56 54 51 56 62 65 67 68 69 66 61 64 64 66 69 70 80 90 78 75 68
82 84 81 81 82 88 90 92 95 95 94 89 56 49 49 52 49 52 55 57 59 60 56 52 54 58 64 63 63 65 65 64 63 65 64 68 70 71 74 77 81 79 77 75
84 82 81 83 86 90 92 93 92 91 59 52 52 51 51 53 55 57 59 61 63 63 52 52 57 59 63 63 58 61 64 66 65 67 68 69 68 74 84 78 80 78 77 70
79 81 76 78 84 91 93 91 85 61 54 53 52 54 54 56 57 58 62 64 62 57 56 60 61 64 64 64 61 63 66 68 68 68 68 66 70 73 71 70 69 68 69 68
72 71 66 59 66 82 87 82 66 61 53 53 54 55 57 57 60 62 66 68 58 56 58 59 61 62 61 59 61 66 70 71 68 69 69 69 70 70 71 72 72 73 72 71
73 78 79 75 65 57 52 56 58 56 52 56 59 60 62 66 68 74 64 67 60 60 59 62 65 62 59 60 63 68 68 65 62 62 66 70 73 78 84 85 86 85 84 88
72 77 81 85 80 69 58 56 57 55 58 61 62 63 65 64 69 75 69 59 64 63 56 59 61 60 62 60 64 66 63 64 65 66 72 80 83 87 90 92 90 90 90 89
75 79 82 87 84 71 66 61 64 64 67 62 63 64 69 72 72 69 69 62 61 60 57 59 61 61 62 61 63 65 66 67 73 82 78 79 89 94 89 87 88 88 86 85
86 93 97 94 89 78 80 88 88 86 74 70 63 62 63 68 72 67 72 67 63 61 61 60 60 62 60 62 64 65 69 77 83 81 84 88 86 90 90 88 87 86 90 92
85 89 92 91 88 79 77 78 75 72 69 70 67 67 70 70 73 68 68 63 59 58 57 57 58 60 62 64 66 68 69 71 73 77 79 86 88 91 90 88 86 86 87 90
97 88 96 89 80 73 73 69 69 71 69 74 75 72 73 71 67 59 61 60 60 58 60 60 61 64 64 66 67 68 70 74 76 76 84 89 87 90 91 91 90 91 91 90

GFSNGP_sfc_rhum_006.txt.gz
RH
57 64 63 61 60 57 54 52 55 55 52 53 49 48 48 52 56 65 71 69 84 88 85 73 62 57 52 50 42 42 36 38 40 41 41 42 44 44 42 43 39 38 37 37
50 49 47 57 62 61 59 58 57 58 56 48 58 66 69 73 65 67 70 66 88 89 80 73 64 57 51 47 35 35 37 39 41 42 43 45 45 43 42 43 41 41 40 42
58 56 54 46 45 69 62 59 56 61 49 48 65 60 67 67 64 64 68 69 93 84 78 66 59 54 49 38 31 32 36 38 41 44 46 46 44 44 44 43 45 44 43 42
55 68 54 45 66 44 50 56 50 57 57 59 63 64 66 66 75 69 70 86 88 80 70 60 57 48 39 30 27 35 37 39 43 46 47 48 48 48 48 46 47 46 46 44
62 64 55 66 58 61 56 71 65 63 63 65 63 71 71 73 79 78 78 89 81 74 65 57 46 34 28 28 34 36 39 42 44 47 50 50 49 50 48 49 49 48 46 47
92 81 66 57 58 52 54 71 64 63 68 72 73 74 71 76 86 88 84 77 73 65 56 42 33 30 32 34 35 37 42 45 46 50 52 52 53 51 50 52 49 49 49 50
79 79 70 57 56 53 65 64 73 67 64 67 70 66 72 88 88 83 78 71 64 56 48 38 31 29 34 36 36 41 46 48 50 52 54 54 54 55 54 56 55 56 54 51
89 85 74 65 63 62 66 72 65 64 64 67 66 74 85 88 86 78 74 69 58 50 39 31 30 35 36 34 41 46 50 52 53 55 51 46 60 61 64 61 60 57 56 58
72 74 69 75 69 72 65 66 68 68 63 62 70 79 84 87 89 82 71 62 52 46 38 34 38 39 40 41 48 51 54 55 56 54 53 53 61 61 60 60 60 60 60 66
73 78 73 68 67 65 64 65 66 74 74 72 75 76 80 86 90 86 67 56 46 38 31 31 36 41 45 48 51 55 58 58 57 60 57 60 61 60 64 60 61 61 66 68
84 87 78 73 75 67 69 72 73 76 77 77 79 80 84 88 90 80 64 48 39 33 34 39 45 47 49 49 54 54 56 56 58 58 64 63 61 65 59 58 62 63 62 64
78 75 75 76 73 74 75 77 83 82 84 84 86 84 90 92 93 75 56 42 39 37 42 44 49 52 52 53 55 60 57 53 57 58 66 62 63 62 58 60 60 59 61 61
76 79 77 81 83 82 83 90 95 93 95 94 94 92 93 82 64 54 42 38 38 42 46 53 55 55 54 54 57 58 63 56 60 60 62 62 67 70 71 60 60 61 62 61
81 80 84 84 85 92 95 94 90 89 88 87 93 85 68 49 48 46 40 41 46 48 51 55 56 57 52 57 57 61 64 62 61 64 68 69 69 66 62 66 69 67 61 63
90 88 86 92 94 96 96 94 94 91 91 89 84 87 60 50 48 43 44 46 49 54 54 54 57 56 54 58 55 60 59 62 64 68 70 66 62 62 63 66 67 67 66 67
99 99 97 96 97 100 97 99 94 92 91 86 88 92 78 55 45 45 49 53 54 50 53 56 58 55 56 59 63 67 68 65 64 64 65 62 63 65 67 68 69 74 77 68
90 87 94 84 95 85 85 87 92 92 92 98 96 90 61 47 49 52 53 54 55 56 56 56 54 52 57 63 68 69 70 71 68 62 65 65 66 69 71 81 81 76 75 67
82 83 72 64 74 80 84 89 92 94 98 94 92 77 53 51 49 50 52 57 58 57 54 52 55 59 66 67 66 68 67 67 66 68 66 69 69 66 68 74 76 74 76 71
78 73 78 78 81 84 88 90 91 92 92 81 65 56 53 53 53 55 59 59 60 60 53 53 57 61 66 65 59 64 67 69 68 69 69 68 69 70 73 72 72 71 73 70
80 78 75 76 79 85 86 90 93 91 78 58 55 55 55 55 57 57 61 62 63 59 58 62 64 69 67 67 64 67 69 71 73 70 70 66 67 68 68 70 69 69 71 69
70 70 71 67 66 72 86 89 86 79 66 56 54 53 54 57 60 62 66 68 58 57 60 60 64 64 64 63 64 70 74 73 71 70 68 67 68 70 71 72 74 75 75 72
72 76 77 76 77 73 65 62 70 71 64 58 57 58 61 66 70 76 64 67 63 61 62 66 70 67 62 61 64 71 72 68 65 64 67 70 74 79 85 85 87 85 85 87
70 72 75 82 83 82 74 63 58 56 56 56 58 63 66 67 69 72 69 58 68 66 59 62 63 60 62 59 69 70 66 66 66 68 74 82 84 88 90 91 89 87 87 89
74 75 77 85 87 84 82 77 65 62 64 62 65 65 69 71 68 63 68 64 64 62 60 62 62 60 61 64 67 68 68 70 76 84 81 81 89 92 90 87 90 91 91 86
86 93 97 96 92 91 88 89 87 84 76 73 66 66 64 65 70 69 76 71 65 63 62 60 60 62 64 66 67 68 71 80 86 83 82 88 88 90 90 90 91 91 92 91
84 85 90 91 92 86 82 79 79 77 71 68 65 65 68 72 76 71 72 64 63 62 61 60 61 62 64 66 68 70 71 75 75 77 80 86 88 91 90 88 89 90 90 91
98 90 96 91 82 78 79 75 72 74 69 70 68 72 74 72 69 63 63 66 66 63 64 63 63 66 67 68 69 69 73 76 77 78 86 90 88 90 90 89 90 90 90 90

GFSNGP_sfc_rhum_012.txt.gz
RH
42 41 38 40 45 41 45 42 42 34 35 27 23 31 31 32 32 34 39 47 49 51 47 42 37 34 31 28 24 19 18 20 23 22 23 23 23 23 23 24 23 23 23 23
42 47 41 41 38 40 42 40 35 32 33 24 24 28 31 30 33 37 39 44 49 52 49 44 38 36 35 27 21 19 19 22 24 23 24 25 25 24 25 26 25 24 24 25
47 40 42 50 40 39 36 32 31 36 30 28 34 32 31 35 38 39 40 44 50 53 51 44 39 36 33 22 18 18 20 21 23 24 24 25 25 24 26 26 25 26 24 24
45 45 67 36 38 32 35 31 30 30 31 30 30 35 39 38 38 42 46 47 52 54 52 43 38 34 24 20 19 20 21 21 23 25 25 25 24 24 24 24 25 25 25 25
57 48 36 34 43 40 43 39 34 34 33 39 41 41 48 48 48 47 46 46 53 53 47 41 37 29 23 20 19 20 21 22 23 24 25 23 24 25 24 25 27 26 25 28
68 64 53 35 41 34 34 36 37 35 40 45 43 43 43 51 53 58 59 59 57 48 41 37 30 23 22 20 19 18 22 24 25 26 26 24 26 27 27 27 26 26 28 27
62 89 41 36 40 40 39 40 46 40 43 46 43 44 54 56 60 56 57 55 47 41 38 32 24 22 22 21 19 22 25 26 26 25 25 25 27 28 30 29 28 28 28 28
59 83 67 45 45 42 48 51 48 48 47 50 53 56 57 59 61 58 57 52 43 41 34 26 23 22 22 20 22 25 27 27 26 24 25 28 36 36 33 29 29 29 30 34
42 43 58 54 51 52 45 49 48 48 48 49 54 54 58 63 61 57 54 49 42 38 33 27 25 22 21 22 26 27 28 26 25 25 26 29 33 35 33 29 31 34 36 40
54 59 57 55 53 48 44 49 48 48 49 48 53 56 59 60 64 59 56 51 44 39 35 30 25 26 23 26 28 29 27 25 25 26 31 30 29 30 33 33 36 38 42 45
65 64 57 54 50 51 54 53 54 53 51 52 53 56 56 60 64 64 58 50 43 40 36 31 26 25 26 29 30 28 26 25 27 28 31 32 30 32 36 38 46 53 52 53
46 48 46 48 51 53 54 57 54 57 62 65 58 60 62 63 64 65 58 49 43 38 33 27 26 27 29 30 31 31 29 28 30 34 34 31 32 35 43 51 56 58 61 59
45 47 56 48 53 54 58 62 62 59 60 65 71 68 68 68 69 64 50 42 40 35 29 28 29 29 30 31 34 32 32 32 34 34 31 35 37 40 44 40 49 52 56 58
57 57 67 58 62 60 63 66 69 66 65 67 70 70 62 57 60 56 48 40 32 30 31 30 30 29 29 33 34 34 36 48 38 35 39 41 41 42 41 43 46 44 48 54
64 64 54 63 68 75 76 75 71 64 64 70 68 66 64 59 55 47 35 30 30 31 31 32 31 30 32 35 37 38 39 37 36 39 40 47 43 42 43 45 46 45 44 47
82 84 86 87 96 93 86 71 58 59 66 67 69 68 66 62 53 40 34 33 32 32 30 34 33 32 35 38 40 40 37 47 51 42 42 43 44 45 46 46 46 46 47 46
91 100 99 100 99 89 61 57 54 60 66 68 71 76 75 56 43 37 35 34 33 33 35 37 36 35 40 43 45 40 39 41 53 46 46 46 47 47 47 47 51 49 47 47
64 66 62 59 59 58 60 62 65 68 71 73 78 77 70 52 46 36 34 36 37 37 38 36 37 42 44 44 44 42 43 44 48 50 49 47 47 49 49 48 50 52 52 52
57 51 44 46 48 51 57 62 65 70 76 77 78 77 66 53 42 34 36 37 35 35 35 39 49 52 46 45 52 46 46 50 50 48 47 52 46 46 49 50 51 54 56 53
53 53 54 57 60 57 60 64 69 73 76 74 69 63 55 44 38 39 39 36 37 36 42 45 49 45 43 45 56 54 52 51 48 45 45 47 46 46 49 55 55 55 56 57
55 55 58 57 56 59 58 60 64 65 65 57 53 48 44 39 40 40 42 39 39 43 50 53 47 45 44 53 54 49 49 48 46 45 45 45 48 51 54 58 62 62 63 63
52 51 52 52 52 55 54 53 59 60 58 52 47 44 42 47 48 51 46 44 43 56 50 47 44 50 53 60 48 48 47 45 43 44 47 49 56 65 71 72 76 73 73 76
51 52 56 57 58 60 59 55 50 48 52 52 48 45 42 43 44 46 46 47 48 51 49 45 53 60 60 49 45 46 46 48 49 50 56 65 70 78 81 80 78 76 82 80
57 56 60 67 67 63 65 62 51 46 46 46 49 50 51 50 48 47 46 52 57 56 50 47 52 60 62 48 47 49 50 50 56 66 64 74 80 80 78 78 81 78 77 75
76 81 83 83 74 72 74 69 69 66 58 56 54 52 51 51 46 48 47 45 55 50 43 49 61 65 53 50 50 51 55 62 73 70 66 76 80 81 80 80 79 78 79 77
71 69 72 72 69 66 59 57 57 56 53 54 54 54 51 48 45 47 43 49 44 51 48 50 51 54 54 54 56 56 55 58 60 63 74 76 80 82 78 77 76 75 75 80
83 77 71 67 63 61 60 58 58 58 53 51 55 50 48 45 44 44 49 44 47 49 51 52 54 58 57 57 58 56 59 63 72 74 76 80 80 82 77 76 78 77 78 77

GFSNGP_sfc_rhum_018.txt.gz
RH
89 62 62 66 68 64 60 56 68 48 41 34 39 42 41 41 44 46 47 48 51 58 56 56 52 47 43 40 34 29 29 33 32 29 28 28 30 31 31 33 33 34 34 35
49 49 56 66 61 61 57 52 51 51 51 32 32 36 40 42 43 45 46 49 51 55 55 54 52 46 42 40 32 29 30 32 29 27 28 30 31 32 33 36 35 35 36 39
58 49 50 62 54 52 52 50 49 57 45 41 34 34 39 40 42 45 47 50 53 57 57 55 50 43 43 36 30 29 28 27 26 27 28 30 30 31 34 35 35 37 37 36
63 61 78 50 42 37 40 41 42 40 40 38 38 45 47 43 41 43 45 49 55 60 61 55 49 46 39 32 30 30 28 25 26 27 27 29 31 33 34 35 37 38 38 37
77 75 54 51 43 47 47 45 38 40 38 46 52 56 60 55 52 55 54 56 61 64 56 51 50 35 32 31 29 28 26 23 24 26 29 30 33 34 36 39 41 41 36 36
93 83 80 53 45 36 41 59 45 42 39 52 53 68 71 61 61 65 66 67 63 56 50 47 37 35 33 31 28 25 25 26 27 29 30 32 34 36 39 44 40 36 34 33
89 93 75 46 44 38 58 59 50 43 46 52 68 66 61 61 66 66 66 60 55 54 52 44 38 37 32 27 26 27 27 27 28 29 31 31 37 41 45 47 43 42 36 33
96 99 92 46 48 54 59 54 49 54 57 65 64 60 62 65 66 63 63 60 55 48 40 36 36 32 29 29 29 29 30 30 32 32 29 30 48 54 51 47 45 42 38 39
81 81 56 54 56 56 50 53 59 63 61 58 62 65 66 68 66 63 58 55 46 40 40 37 35 31 30 32 29 30 31 32 32 31 33 37 46 50 51 44 43 42 42 48
52 62 62 57 57 58 54 58 59 58 59 59 66 66 68 65 64 59 57 56 48 45 43 40 33 29 32 31 31 31 32 33 33 37 40 41 42 45 48 44 44 44 49 57
63 67 62 58 58 58 57 56 57 58 59 62 64 68 68 68 68 66 63 59 53 51 48 42 35 31 33 32 32 35 35 36 39 41 44 47 44 45 43 44 47 47 53 56
58 50 52 61 58 55 58 62 63 63 68 68 68 70 71 75 73 70 68 62 63 59 51 41 33 32 34 35 36 38 41 44 47 50 53 51 49 44 44 45 47 48 49 49
53 54 55 55 57 57 62 64 67 69 68 69 68 68 71 76 75 67 66 64 61 59 45 36 34 34 35 36 41 42 49 48 52 52 54 52 50 51 52 48 47 48 49 50
55 54 66 63 67 62 64 64 64 64 66 69 70 69 73 82 73 68 66 61 53 46 42 36 35 35 36 38 44 48 51 48 57 57 58 60 53 54 53 52 53 50 49 51
66 65 64 64 66 73 72 70 72 71 70 70 69 67 68 74 74 66 53 44 42 42 38 37 37 37 39 43 47 51 54 58 57 60 62 58 55 55 55 53 53 53 53 51
88 82 76 82 88 87 80 70 65 67 71 72 74 76 75 73 59 51 46 44 44 47 43 43 43 46 48 52 55 59 59 51 49 57 58 59 60 58 56 55 55 56 56 54
96 100 98 98 91 80 63 57 63 67 70 77 85 83 75 67 59 55 50 45 45 48 50 50 51 51 52 52 56 61 61 60 52 57 60 62 60 58 55 56 59 57 55 53
82 89 85 82 70 58 64 66 69 71 77 83 86 86 77 71 65 57 51 47 48 49 50 52 57 61 60 58 58 62 66 65 63 67 66 63 56 54 52 53 56 58 58 57
75 74 72 59 57 62 68 73 78 82 85 85 87 88 79 71 61 52 48 48 47 48 58 58 55 59 61 54 54 65 69 72 69 67 62 54 53 55 56 56 57 60 64 62
58 56 58 61 64 63 70 74 80 86 87 87 87 86 80 64 51 48 47 51 61 63 59 63 63 60 56 54 54 71 74 73 68 62 58 52 53 52 55 57 60 66 67 65
60 61 63 63 68 70 71 74 76 80 78 76 76 73 67 55 51 50 51 58 65 64 60 55 58 60 62 62 71 76 73 68 61 61 58 55 56 60 67 72 73 71 72 70
56 62 64 65 68 72 72 72 71 68 64 61 60 56 57 59 65 68 63 65 68 57 62 62 59 57 65 60 72 71 65 59 59 61 65 66 72 82 86 86 89 85 83 83
59 62 65 65 65 66 64 64 65 65 66 62 57 55 58 62 63 63 67 63 63 60 64 61 53 54 60 72 73 66 62 62 62 64 81 92 88 90 89 90 83 84 88 88
63 67 73 70 70 68 67 62 59 57 59 57 60 60 62 66 65 62 58 50 51 56 53 52 54 58 60 70 68 68 67 67 80 89 84 75 92 93 86 85 87 89 90 85
87 90 87 85 82 80 82 82 75 71 63 62 61 61 55 56 62 56 53 52 48 52 58 53 55 56 66 68 68 68 73 86 88 86 87 93 90 92 89 90 90 86 87 88
81 83 84 80 77 73 70 68 66 65 60 64 64 58 55 52 53 50 51 48 50 50 56 59 60 62 66 67 69 72 71 78 75 80 79 88 93 92 88 88 87 86 85 87
82 77 77 72 70 71 71 67 67 69 63 62 56 53 51 47 46 47 46 48 51 53 57 58 62 63 66 67 68 68 76 80 76 79 84 90 90 90 88 88 88 88 88 88

GFSNGP_sfc_rhum_024.txt.gz
RH
94 89 95 83 76 80 99 83 97 73 64 64 45 47 58 59 63 66 70 72 70 68 65 60 53 48 42 37 36 36 36 37 36 34 33 34 34 34 35 38 38 40 40 42
98 89 94 96 88 80 93 90 96 92 60 39 50 55 68 65 62 64 67 68 66 65 65 59 53 46 38 37 38 37 39 39 37 34 33 35 34 36 36 38 38 41 43 48
99 84 88 99 89 95 91 87 90 75 50 52 52 48 66 67 57 60 63 65 65 65 62 56 52 40 38 36 38 38 39 36 34 33 32 34 33 34 36 38 42 45 48 48
92 89 84 49 55 63 70 60 57 55 49 50 52 69 68 69 61 60 60 63 63 62 63 57 47 40 36 35 36 38 37 33 33 33 31 33 34 36 37 39 44 49 50 50
98 94 66 50 48 61 70 66 58 60 56 62 65 63 69 78 70 69 64 64 62 62 59 50 42 35 33 36 37 36 33 32 29 29 31 34 35 37 38 44 50 54 52 50
97 92 80 57 49 48 51 68 61 56 61 63 61 62 69 88 81 79 76 71 65 56 49 42 36 32 33 36 35 33 32 31 31 33 33 34 37 38 44 51 54 53 50 48
92 98 83 64 53 53 65 55 64 65 60 61 59 69 81 74 71 66 62 56 50 46 42 38 34 32 35 34 33 32 33 33 33 33 34 35 40 49 53 55 55 54 50 50
95 98 89 60 48 56 52 77 78 80 80 85 84 79 76 72 69 63 58 51 45 43 41 37 35 32 32 33 35 35 35 35 35 36 32 38 50 54 54 56 56 56 56 56
82 81 66 71 69 70 63 70 77 82 79 77 78 78 74 73 66 58 53 49 44 43 40 39 35 31 34 37 37 36 36 36 36 37 44 47 50 55 56 57 59 59 60 62
78 73 77 66 67 67 67 73 76 74 73 70 77 74 74 69 62 54 51 48 44 41 39 39 36 35 36 38 37 36 36 38 44 48 54 54 55 52 58 63 66 63 63 62
72 76 73 71 74 72 75 74 75 75 71 72 70 72 68 68 64 57 52 48 43 40 40 41 39 39 39 38 38 38 40 45 49 53 59 59 56 58 63 64 63 61 66 64
75 57 55 60 70 69 70 75 74 73 76 74 67 69 67 67 64 56 55 52 49 48 42 42 41 42 42 42 41 42 44 49 56 63 64 61 62 65 57 53 53 53 54 55
54 63 67 67 69 70 72 74 74 75 73 77 74 69 68 71 70 60 63 59 54 53 47 44 44 44 45 46 47 48 52 54 63 58 61 64 67 70 66 58 53 53 53 54
64 59 68 69 74 71 72 74 75 78 79 79 82 80 77 78 75 74 71 65 56 48 47 44 44 45 47 49 51 54 57 56 66 67 68 69 71 66 67 65 66 60 54 54
77 72 68 76 75 78 74 74 81 86 86 90 86 81 76 78 79 75 63 51 46 46 45 46 47 50 52 53 52 59 59 66 68 69 68 64 63 66 68 67 64 61 56 53
90 82 78 80 83 83 81 80 81 85 85 88 84 81 77 69 63 59 54 48 44 49 48 49 51 55 56 58 61 63 64 60 61 67 66 67 70 69 67 65 60 59 60 58
86 94 90 89 86 84 75 73 72 76 74 71 75 69 62 59 58 57 54 53 52 52 54 57 60 57 60 60 61 65 68 68 64 71 74 74 71 68 65 58 61 60 61 59
82 82 78 74 74 76 80 80 78 70 72 70 65 62 60 56 55 56 59 57 59 62 60 60 60 62 63 60 61 65 69 74 74 79 75 65 62 59 58 60 62 66 68 65
83 81 75 68 67 72 76 79 74 78 74 73 67 68 68 60 53 54 55 56 60 62 64 66 61 60 58 59 64 74 76 78 76 74 64 60 62 61 63 64 69 71 71 69
76 70 69 73 72 72 77 78 80 84 89 80 74 67 64 60 57 56 58 65 64 62 67 64 61 60 62 67 67 74 76 76 70 66 66 65 64 66 69 72 72 74 77 72
72 70 70 72 77 76 77 79 87 91 86 71 61 59 58 60 62 63 66 70 72 66 66 61 63 69 68 76 70 74 72 68 67 72 72 70 72 77 80 83 84 79 76 76
64 67 74 76 82 88 85 85 84 82 76 65 60 59 61 69 74 75 69 75 74 60 61 62 65 59 70 63 70 71 71 69 71 75 78 79 83 90 93 89 90 87 86 86
65 68 71 73 77 77 72 70 68 65 63 60 61 62 63 68 69 66 71 68 68 56 58 63 57 57 64 69 72 74 75 75 76 78 87 95 96 97 95 95 90 89 91 89
65 67 70 69 66 66 70 70 66 67 65 62 64 62 63 65 64 67 65 59 55 57 60 62 59 58 60 73 76 80 80 82 91 95 93 81 96 97 93 91 92 91 90 89
75 76 76 76 72 72 78 78 75 69 62 62 63 65 63 64 57 58 57 59 56 56 60 57 58 61 72 76 78 81 87 94 93 91 91 97 94 95 94 94 94 92 92 91
70 71 75 69 66 65 63 60 64 61 55 57 58 57 57 57 56 58 58 56 61 59 66 66 69 70 73 75 77 76 80 85 84 92 90 96 94 96 95 93 93 92 90 92
83 77 74 70 67 65 66 64 62 64 54 49 52 54 55 58 59 60 58 64 65 66 67 67 68 66 69 71 72 74 85 89 87 89 94 96 96 96 94 93 93 91 91 91

GFSNGP_sfc_rhum_027.txt.gz
RH
92 80 79 98 97 90 98 79 87 58 55 45 46 64 67 70 77 82 82 81 75 70 66 59 52 47 40 38 38 36 36 38 38 36 36 38 37 37 38 40 39 42 44 46
96 84 94 95 95 86 80 76 78 76 75 46 62 58 68 71 72 77 80 78 74 68 63 56 50 44 38 39 40 37 40 42 40 38 37 38 37 37 38 39 41 45 48 52
93 95 94 99 93 95 82 72 80 97 78 64 55 54 65 69 66 72 75 76 73 69 61 55 48 40 39 38 40 40 41 40 38 37 36 37 35 36 37 40 46 49 50 51
99 99 98 86 85 81 91 85 83 83 77 70 53 66 67 67 65 69 71 72 70 68 63 56 46 40 38 39 40 42 41 38 37 36 35 35 35 36 39 43 46 52 52 53
99 98 72 52 69 93 96 92 82 86 75 61 68 64 70 76 71 75 70 68 69 66 61 49 42 37 37 40 42 40 38 36 33 32 34 35 37 39 40 47 53 55 56 53
94 100 86 64 56 50 66 71 59 71 64 66 63 54 59 87 83 81 76 71 71 60 52 45 40 35 36 39 38 37 35 34 34 36 35 36 38 42 48 54 54 54 49 51
92 95 85 68 62 55 64 58 66 65 62 67 59 76 86 76 73 74 71 65 57 52 48 41 36 34 38 37 37 36 36 35 36 37 37 39 47 52 54 57 56 57 55 59
95 97 85 62 51 56 54 78 82 82 78 89 85 79 75 70 67 64 62 55 48 45 42 38 36 34 37 37 38 37 38 39 38 39 38 45 52 56 55 58 61 63 65 64
86 82 68 75 73 75 68 72 83 88 86 78 80 78 71 67 60 57 53 50 44 41 40 39 37 32 36 40 40 40 39 39 41 47 48 50 53 56 58 64 68 69 69 71
82 76 78 75 75 72 73 80 85 83 81 74 79 73 66 60 56 54 50 46 41 39 38 40 38 38 37 41 40 38 40 46 50 56 58 58 56 53 63 71 74 70 69 67
80 71 74 75 73 74 78 76 76 76 74 74 71 70 64 61 57 53 49 46 42 40 40 43 40 42 42 41 39 39 46 47 56 59 63 61 58 63 70 68 68 68 71 69
78 61 56 61 71 75 75 76 74 73 74 72 67 68 63 61 55 52 51 47 45 46 44 45 43 45 45 42 41 44 47 51 64 66 67 64 67 67 56 54 55 54 55 56
61 68 74 75 74 75 77 76 73 73 70 74 71 65 62 61 60 56 55 49 46 48 47 46 47 48 48 48 48 49 54 60 64 59 64 68 69 71 70 59 56 55 54 56
72 66 74 74 75 76 76 78 79 80 78 73 73 70 68 71 65 62 59 59 49 48 49 48 48 51 51 52 52 58 62 58 68 71 69 69 73 69 70 69 69 64 57 56
80 77 67 74 76 80 78 77 83 87 85 87 82 79 73 73 74 74 61 49 45 48 51 50 52 55 55 55 56 60 61 67 71 72 70 69 69 70 70 70 66 63 60 56
90 85 80 82 87 88 86 84 87 92 90 89 84 82 80 74 67 60 54 48 45 50 51 51 55 58 59 60 63 64 64 61 64 73 73 74 73 71 70 64 62 62 64 63
86 95 92 92 90 86 81 81 81 87 82 72 70 68 64 61 57 57 56 53 52 54 55 58 62 60 62 62 62 68 71 72 64 75 78 75 70 70 64 62 64 64 66 64
80 81 78 76 79 82 84 83 80 74 70 63 59 61 59 57 57 60 60 59 60 63 62 60 63 64 63 64 65 73 75 77 76 80 72 64 65 62 62 65 66 71 71 67
83 79 78 74 73 76 78 80 73 67 61 58 61 65 62 59 56 57 58 58 61 66 70 72 62 59 60 66 75 74 76 77 73 68 65 65 67 66 69 71 75 76 75 74
80 75 73 76 74 73 81 76 67 66 64 70 65 61 58 56 54 55 58 66 66 66 69 65 61 65 69 76 65 74 74 70 69 70 72 72 71 74 75 77 76 79 78 73
78 74 74 74 76 76 75 70 69 72 78 67 63 60 59 61 63 66 71 75 79 70 69 63 68 72 78 70 70 72 71 72 72 79 79 78 80 84 86 84 84 79 79 78
75 76 78 76 82 88 84 79 76 72 64 61 59 59 62 68 74 79 76 78 77 61 63 66 69 66 72 63 70 72 74 74 77 81 86 87 89 93 94 93 93 88 87 89
75 76 78 79 85 84 78 78 74 64 61 60 61 62 63 71 73 72 76 72 66 58 65 70 60 60 62 71 74 78 79 80 81 83 94 97 97 98 97 96 91 92 93 92
72 72 74 74 74 74 77 72 67 66 65 63 65 65 64 69 72 74 67 61 56 63 68 66 63 60 61 76 80 84 82 83 93 97 97 84 98 98 95 95 95 93 92 90
78 78 78 77 73 75 80 77 74 70 66 67 65 64 62 62 62 64 70 66 56 59 64 59 59 63 75 77 82 80 87 95 96 95 96 98 97 97 96 96 96 94 92 92
69 70 72 68 68 66 63 59 62 61 59 61 62 61 62 61 56 62 62 62 66 62 67 69 68 71 72 76 79 78 82 89 89 96 92 98 96 97 96 95 95 94 92 92
75 73 71 67 63 62 63 59 58 61 56 52 55 57 56 59 59 63 63 68 68 67 66 66 65 69 74 76 76 80 90 94 88 91 97 97 97 97 96 94 94 93 93 91